Location: Peterborough
(44.3091°N, 78.3197°W)
Time: 06:28:52
(UTC-04:00)

A-11 Canister half - Pass Details

Date: 24 March 2023
Orbit: 1513 x 1686 km, 47.2° (Epoch: 04 June)

Event Time Altitude Azimuth Distance (km) Brightness Sun altitude
Exits shadow 06:02:25 - 290° (WNW) 4,299 10.8 -12.7°
Reaches altitude 10° 06:03:39 10° 287° (WNW) 3,955 10.6 -12.5°
Maximum altitude 06:12:35 37° 225° (SW) 2,411 9.6 -10.9°
Drops below altitude 10° 06:21:24 10° 163° (SSE) 3,890 11.2 -9.4°
Sets 06:24:49 0° 155° (SSE) 4,854 11.8 -8.8°
